Temp
14 13 14 14 14 15 15 15 16 16 16 16 16 16 15 15 15 15 15 15 15 15 15 14 14 14 14 13 14 13 12 12 11 12 12 11 11 10 9 9 8 8 8
14 14 14 14 14 14 14 15 15 15 15 16 15 15 15 15 15 15 15 14 14 14 13 13 13 14 14 13 13 11 11 11 10 10 10 10 9 9 8 7 6 7 7
13 13 13 13 13 14 13 13 15 15 15 14 15 15 15 14 14 15 14 14 14 14 14 13 13 13 13 12 11 11 10 10 10 9 9 8 8 8 7 7 7 6 6
13 14 13 13 13 13 13 13 14 14 14 14 14 14 14 14 14 14 14 13 13 13 13 12 12 12 13 11 11 10 10 9 9 8 8 7 6 6 5 5 6 6 6
13 13 13 13 13 13 13 13 13 13 14 13 13 13 13 13 14 13 13 13 12 12 12 12 11 12 11 11 11 10 9 9 8 7 6 6 5 5 5 4 3 4 6
12 12 12 13 12 13 13 13 13 13 13 13 13 13 13 13 13 13 13 12 12 11 11 11 11 11 11 10 10 9 9 8 7 6 5 4 5 5 4 3 2 3 3
11 11 11 11 11 11 11 12 12 12 12 12 12 12 12 12 13 13 13 13 12 12 12 11 10 9 9 9 9 9 8 7 6 6 5 4 4 3 3 2 1 2 2
10 10 10 11 11 11 11 11 11 11 11 11 11 11 11 11 11 12 12 12 11 10 10 9 9 8 8 9 8 7 6 6 5 5 5 4 4 3 3 1 1 1 2
9 9 9 9 9 9 9 9 10 10 10 10 10 10 10 10 10 10 10 9 8 8 8 8 8 8 8 7 7 6 5 5 4 4 4 4 3 3 2 2 0 1 1
9 9 9 9 9 9 9 9 9 9 8 8 8 8 8 8 8 7 8 9 8 8 7 7 7 7 7 6 6 6 5 4 4 4 3 3 2 1 2 1 1 -0 -1
8 8 9 9 9 9 8 8 8 8 7 7 7 7 8 8 7 7 8 8 8 7 7 6 6 5 5 6 6 5 4 4 3 3 3 2 1 1 1 1 1 1 -1
7 7 8 8 8 8 8 7 7 7 7 6 6 6 5 6 7 7 7 7 6 7 7 7 6 6 5 5 5 4 3 3 3 2 2 2 1 1 1 1 0 -0 0
7 7 7 7 7 7 7 7 6 6 6 6 6 5 5 5 6 6 6 7 6 6 6 6 5 5 4 4 3 3 2 2 2 1 1 1 1 1 0 -0 -0 -1 -0
7 8 7 7 7 6 6 6 6 6 6 6 6 5 5 5 5 5 5 4 3 4 4 4 4 4 4 3 2 2 1 1 1 1 1 0 0 -0 -0 -0 -1 -1 -1
5 6 7 7 7 6 6 6 6 6 6 6 6 6 5 5 5 6 6 5 4 3 3 3 2 2 2 2 2 1 1 1 1 1 0 -0 -0 -1 -1 -1 -1 -2 -2
4 4 5 5 5 6 6 6 6 6 6 6 6 6 6 6 6 5 5 5 4 3 3 2 2 2 2 2 2 2 1 1 1 1 0 -0 -0 -1 -1 -1 -2 -2 -2
5 4 4 4 4 4 5 5 5 6 5 5 5 5 5 5 5 5 4 4 3 3 3 2 2 2 2 2 2 1 2 2 2 0 0 -0 -1 -1 -1 -2 -2 -2 -2
2 2 2 2 2 3 3 4 4 3 3 4 4 4 4 4 4 3 3 2 2 2 2 2 2 2 2 2 2 2 2 1 1 0 -0 -0 -1 -1 -2 -2 -2 -2 -3
1 1 1 1 1 1 1 1 2 2 3 3 3 3 3 3 3 3 2 2 2 2 2 2 2 2 2 2 2 2 1 1 1 0 -0 -0 -1 -1 -2 -2 -2 -3 -3
-1 -1 -1 -1 -1 -0 -0 -0 -0 0 1 1 2 2 2 2 2 2 2 2 2 1 2 2 2 2 2 1 1 1 1 1 0 -0 -0 -1 -1 -1 -2 -2 -2 -3 -2
-2 -2 -2 -2 -2 -2 -1 -1 -1 -1 -1 -0 0 1 1 2 2 2 2 2 2 2 2 2 2 1 1 1 0 0 0 -0 -0 -0 -1 -1 -1 -2 -2 -2 -3 -3 -3
-3 -3 -3 -3 -3 -3 -3 -2 -2 -2 -2 -2 -1 -1 -0 1 1 1 1 1 2 1 1 1 1 1 0 0 -0 -1 -1 -1 -1 -1 -1 -2 -2 -2 -3 -3 -3 -3 -3
-4 -4 -3 -3 -4 -3 -4 -3 -3 -3 -2 -2 -2 -2 -1 -1 -0 0 0 0 0 0 0 -0 -0 -1 -1 -1 -1 -1 -1 -2 -2 -2 -2 -2 -3 -3 -3 -3 -3 -4 -4
-4 -4 -4 -4 -4 -4 -4 -4 -4 -3 -3 -3 -3 -2 -2 -1 -1 -1 -0 -0 -1 -1 -1 -1 -1 -2 -2 -2 -3 -3 -3 -3 -3 -3 -3 -3 -3 -3 -3 -3 -3 -3 -3
-5 -5 -5 -5 -5 -5 -5 -5 -5 -5 -4 -4 -4 -3 -3 -3 -3 -3 -2 -2 -2 -2 -2 -3 -3 -3 -3 -3 -3 -4 -4 -4 -4 -4 -4 -4 -4 -4 -4 -4 -4 -4 -4
-5 -5 -5 -5 -5 -6 -6 -6 -5 -5 -5 -5 -5 -5 -4 -4 -4 -4 -4 -4 -4 -4 -4 -4 -4 -4 -4 -4 -4 -4 -4 -4 -4 -4 -4 -5 -5 -5 -5 -5 -5 -5 -5
Height
718 721 716 716 718 728 734 741 747 755 762 769 773 779 784 789 795 801 803 808 812 815 819 821 823 825 822 831 829 839 840 845 847 847 847 847 847 846 846 846 845 844 843
720 722 722 726 729 729 732 734 743 750 757 763 770 773 781 785 792 796 800 805 807 812 815 819 821 820 814 831 831 836 838 840 844 845 845 845 845 845 843 843 841 840 839
718 721 722 728 730 734 737 739 741 750 753 757 765 772 778 784 789 793 797 802 805 807 812 814 817 815 815 824 829 832 836 841 841 842 841 841 841 841 842 841 840 838 837
723 724 727 732 730 735 733 741 747 751 745 756 762 771 777 783 788 790 794 799 801 804 809 813 817 816 815 823 827 831 836 837 839 839 841 841 840 838 841 840 838 837 835
727 729 732 733 735 735 738 745 751 754 757 760 765 771 778 780 782 789 794 796 798 802 808 812 815 813 818 822 826 831 834 835 835 835 838 839 841 840 838 839 836 836 832
734 734 735 738 740 742 746 752 758 758 761 762 767 770 773 776 781 785 791 792 795 802 806 808 810 814 818 822 826 829 831 831 833 835 838 838 839 838 836 834 834 833 831
738 740 741 743 746 747 751 754 757 760 763 765 768 770 773 778 780 785 787 792 796 799 801 805 810 815 818 821 824 824 829 830 828 832 833 835 836 835 835 834 833 832 829
748 747 748 749 751 753 755 756 760 763 766 767 768 771 776 778 781 782 788 791 795 797 801 805 811 815 816 818 820 823 825 826 829 832 830 831 834 831 830 829 828 827 827
751 753 755 756 758 760 762 763 763 765 765 769 771 773 776 778 781 783 788 790 796 797 802 807 810 811 814 817 819 820 822 826 828 829 830 830 831 829 829 829 827 825 825
754 757 759 760 762 764 765 767 767 766 768 771 773 774 777 778 781 784 787 788 791 794 800 804 805 809 812 815 815 818 820 822 824 824 825 825 826 827 827 829 824 828 829
765 764 760 760 763 763 764 765 767 767 769 770 770 774 775 777 780 782 785 790 793 795 797 802 804 808 809 809 812 813 816 819 821 823 823 822 824 824 825 826 826 824 823
767 764 765 765 763 765 765 764 762 764 766 769 771 773 774 775 777 780 785 786 793 791 792 798 800 805 806 807 808 811 814 813 817 818 820 822 822 821 822 822 824 825 820
764 769 772 771 768 767 764 763 765 765 763 764 766 768 769 772 777 781 782 780 788 789 791 795 797 800 802 804 806 808 809 811 814 814 817 818 819 822 821 821 820 817 816
772 767 765 766 770 767 768 765 763 764 763 762 763 762 765 768 769 771 775 780 785 787 790 790 794 798 799 800 803 806 806 808 810 812 815 816 817 819 820 819 819 817 810
774 772 766 761 761 761 762 758 762 765 765 762 759 760 760 764 767 766 769 771 774 781 787 790 791 793 796 798 798 801 803 804 804 807 809 810 812 814 813 814 813 812 815
769 769 770 766 764 764 764 762 760 762 759 755 754 758 761 758 763 764 766 772 772 775 780 782 784 788 790 791 794 796 799 801 800 805 808 806 808 808 807 809 805 811 809
760 760 764 762 758 757 759 757 753 755 753 754 755 756 755 754 754 759 764 769 769 770 771 774 778 781 782 787 789 793 794 796 798 802 800 802 804 805 799 800 806 804 804
768 766 763 759 759 758 757 753 752 751 750 749 748 748 749 750 751 756 757 763 763 763 765 768 771 775 778 782 785 787 790 792 793 795 797 796 799 796 793 796 798 800 801
769 767 764 761 760 757 752 749 747 746 746 745 743 743 743 745 746 748 752 753 754 756 759 763 767 769 773 775 781 783 785 785 788 788 792 792 793 789 788 790 793 795 797
767 765 763 760 755 751 749 748 746 743 741 739 739 737 737 740 741 743 746 750 749 751 753 758 763 767 769 771 774 778 779 780 781 782 784 785 787 784 784 786 788 791 790
760 759 757 755 753 751 747 744 740 738 737 736 735 733 733 734 736 738 739 741 744 748 751 755 759 761 764 765 769 773 771 771 773 776 778 780 778 780 781 781 784 786 786
757 756 754 752 750 748 745 743 740 737 734 731 730 730 731 731 731 733 735 736 740 743 747 751 753 756 759 761 762 764 766 767 769 770 773 773 773 776 776 778 780 782 783
756 755 752 750 749 746 744 742 740 737 735 732 729 727 728 728 728 730 732 734 735 738 742 746 748 752 755 757 758 760 762 764 765 766 768 769 770 771 772 774 777 779 780
756 753 751 749 748 745 743 741 739 737 735 733 730 727 726 725 726 726 729 731 733 735 738 742 746 749 752 754 755 757 758 761 762 763 765 766 767 768 770 772 774 775 776
754 752 750 747 747 745 743 741 740 738 736 734 733 730 728 727 727 727 728 730 733 735 737 741 743 746 750 751 752 754 756 757 759 761 762 763 764 765 767 770 771 772 772
752 751 748 746 745 743 742 740 738 737 735 734 733 732 729 729 730 730 730 732 734 735 737 739 741 744 747 749 749 751 753 754 756 757 758 760 761 763 765 766 767 768 768
Wind_Speed
18 15 15 15 15 16 32 34 39 38 35 35 38 37 34 32 30 29 26 23 20 20 20 22 20 18 12 10 10 7 6 8 6 4 5 7 6 6 7 8 9 12 12
17 15 18 17 17 14 7 20 34 38 39 40 39 36 34 32 30 27 24 23 25 21 21 21 20 16 17 9 6 7 7 7 7 4 3 2 4 10 12 15 12 12 12
17 15 13 12 12 11 12 8 20 27 38 41 39 34 30 28 25 23 22 23 23 21 23 23 22 20 15 11 9 8 7 7 6 5 3 4 8 13 12 11 11 12 12
14 15 14 12 13 14 15 12 11 15 34 32 31 26 25 22 21 18 20 23 25 24 20 18 16 13 13 11 10 9 8 7 5 4 2 5 7 9 11 12 13 13 15
13 13 14 13 10 12 14 14 13 17 23 21 20 21 23 23 18 22 23 27 22 20 19 18 16 11 11 11 11 11 9 6 5 2 2 4 8 7 8 7 11 15 14
15 14 12 10 10 14 15 14 17 16 17 19 21 22 26 21 21 22 25 22 20 23 21 16 13 13 13 14 13 10 7 6 4 3 2 4 7 7 8 8 11 8 5
15 14 14 14 14 14 15 17 15 15 15 18 18 19 19 19 20 20 20 21 22 22 20 19 17 17 16 14 11 8 6 4 5 6 5 5 5 4 9 10 6 7 6
15 13 10 10 11 11 12 13 13 11 11 11 12 13 13 14 17 19 21 21 21 20 19 19 20 18 15 13 11 9 6 4 3 3 3 5 8 8 8 7 7 7 10
14 12 10 7 7 6 7 8 8 10 10 11 12 12 14 16 18 18 19 20 19 18 19 17 16 16 15 14 12 10 7 7 5 6 6 7 7 7 6 5 3 3 3
10 7 6 6 6 6 7 8 9 10 11 10 9 9 11 15 18 19 17 20 22 20 17 16 15 15 16 15 12 10 10 10 9 6 6 5 5 7 5 5 3 3 4
3 1 3 4 7 7 8 9 10 10 11 12 13 12 11 11 16 19 17 15 18 19 18 18 17 16 15 14 13 12 11 10 8 7 5 4 6 6 5 5 6 5 5
8 5 3 1 3 6 8 10 12 13 14 15 16 14 12 13 17 21 21 17 14 19 18 16 14 14 14 12 12 11 10 9 8 7 6 6 8 9 9 7 7 8 6
13 9 6 5 4 5 5 9 12 12 15 16 16 16 17 15 14 15 18 19 19 15 14 14 12 12 13 13 11 11 12 11 10 9 10 9 9 9 8 9 8 7 6
9 10 9 8 8 7 9 10 11 13 15 17 18 18 17 17 18 19 18 18 19 16 15 14 13 14 13 11 11 13 13 13 12 12 9 8 10 10 8 7 8 7 6
11 12 13 13 11 9 11 10 12 14 17 18 19 20 19 19 22 21 22 23 23 22 18 15 16 16 15 15 14 14 14 14 14 13 13 13 14 12 8 7 6 6 8
14 14 13 12 10 11 13 13 15 16 14 15 14 16 17 18 16 17 18 19 20 20 22 23 22 22 21 19 18 15 16 15 15 15 16 15 15 13 11 9 8 10 10
22 20 18 14 13 14 17 16 15 14 16 18 18 20 17 14 14 15 19 20 19 19 23 23 23 22 21 20 18 17 18 16 15 17 17 18 17 16 12 11 12 12 13
21 23 24 23 23 21 18 15 15 18 19 21 17 18 19 18 17 18 18 20 19 20 23 23 24 21 19 17 17 18 17 16 16 17 18 17 17 15 13 15 15 15 15
18 19 21 23 22 21 20 21 20 18 20 21 18 15 18 17 18 17 19 24 25 24 25 23 22 19 19 17 17 17 17 17 19 18 19 18 16 14 15 15 16 14 12
14 15 17 19 18 18 19 19 18 15 16 17 17 19 16 14 18 20 22 25 24 23 26 25 22 18 17 15 15 17 17 18 18 18 18 16 15 13 14 14 15 17 16
16 16 13 13 15 16 16 16 15 15 16 16 15 15 15 17 21 24 25 25 25 25 22 19 17 16 15 14 15 18 18 19 19 19 17 15 13 14 14 14 13 15 16
14 14 14 13 14 16 16 18 19 18 17 16 18 19 15 14 18 20 21 23 23 22 20 17 15 15 15 15 15 16 16 17 17 15 15 13 12 13 12 12 12 13 14
13 15 15 15 14 14 15 16 16 16 17 16 16 16 16 16 17 18 18 18 17 16 16 15 13 12 11 10 10 12 14 14 13 12 12 12 11 10 10 11 12 12 13
17 17 15 13 14 14 15 16 17 15 14 11 11 10 11 13 14 15 14 13 13 12 11 10 9 8 8 8 8 8 9 9 9 9 10 10 8 7 7 8 9 11 12
16 15 15 13 13 13 14 14 15 16 14 11 12 7 4 2 3 6 7 8 9 10 9 9 8 8 9 9 8 7 8 7 7 7 7 7 7 7 9 9 11 11 12
14 14 14 12 12 13 13 13 13 12 11 10 9 6 4 1 1 2 3 4 6 7 7 8 8 9 10 10 10 10 10 10 11 11 12 13 14 14 14 13 13 14 13
Wind_Direction
161 163 145 125 117 164 177 173 178 178 178 179 180 178 177 175 174 173 173 177 183 183 184 183 186 190 164 178 160 220 202 219 232 267 299 332 351 349 336 323 317 321 316
155 154 151 146 149 155 163 159 168 172 174 179 173 171 171 170 174 179 181 185 182 185 191 197 187 184 156 199 186 205 212 205 229 262 289 325 320 317 315 323 322 309 309
135 137 146 167 158 169 155 125 159 177 169 169 168 169 169 175 177 179 182 184 196 204 201 194 193 177 162 182 191 194 198 206 215 234 272 299 314 328 332 331 329 322 320
128 126 150 154 146 145 148 153 157 144 147 159 163 169 177 177 180 185 192 206 204 193 194 192 192 185 171 185 183 186 195 192 190 211 246 301 324 325 329 336 335 327 321
117 139 146 146 142 142 148 140 162 157 156 163 169 181 189 190 192 189 191 187 180 175 181 185 188 181 187 188 184 192 199 196 201 237 273 303 307 316 313 321 327 329 334
111 115 126 139 145 155 168 170 172 167 173 184 193 197 189 190 190 200 196 187 180 182 182 185 186 191 192 188 188 195 209 207 224 238 238 265 284 284 297 312 319 335 325
96 100 105 117 117 121 147 162 158 155 165 170 174 180 178 177 182 192 192 195 193 193 193 194 189 186 188 188 192 197 207 197 197 222 216 236 257 245 291 306 312 315 295
70 72 81 104 113 125 132 137 148 156 165 172 176 183 184 184 195 198 201 199 194 192 194 188 186 185 184 183 179 181 180 179 181 207 246 266 276 280 281 282 290 299 301
67 71 69 74 91 102 118 132 151 169 172 180 186 186 188 187 190 191 190 184 183 177 178 184 189 186 189 188 187 182 182 201 214 235 245 262 288 300 303 283 263 313 291
58 62 88 111 136 153 165 166 165 170 167 172 173 188 198 196 190 184 184 179 174 176 182 187 186 194 190 191 192 192 191 207 224 240 254 268 276 297 301 294 291 234 271
47 91 117 143 166 174 169 171 175 176 179 180 181 186 193 200 191 183 183 192 192 187 188 192 195 198 195 196 202 203 212 213 227 255 262 253 261 274 290 289 280 259 220
4 8 359 285 196 199 195 180 178 178 177 180 180 179 183 186 191 193 192 187 204 197 195 205 204 208 211 208 210 208 224 222 232 228 238 249 247 248 266 277 280 282 279
355 341 308 275 259 232 226 203 196 194 188 186 189 190 188 195 201 206 204 197 202 203 205 209 206 202 204 207 211 210 210 223 223 222 230 242 255 267 268 272 275 270 285
339 330 323 307 276 257 242 235 221 216 207 201 202 201 203 206 205 208 210 206 211 198 198 198 202 204 206 209 212 217 220 223 228 238 245 247 248 253 268 278 282 296 308
340 336 331 323 312 287 270 251 252 252 238 222 218 217 205 214 222 219 215 210 208 211 200 201 195 196 201 205 213 220 222 226 230 238 231 230 245 253 260 263 273 285 267
344 338 328 313 303 287 268 259 244 244 237 235 239 240 234 229 234 228 225 223 216 202 197 203 206 210 212 215 220 228 236 237 240 242 242 240 243 244 245 251 263 265 269
308 302 295 295 302 297 288 280 286 269 251 242 237 231 230 235 229 217 214 211 206 198 202 207 210 219 226 228 231 234 237 243 249 245 242 243 244 246 239 251 261 260 266
305 302 304 304 294 282 274 272 272 263 262 263 254 244 236 229 223 216 206 204 200 204 216 219 218 222 224 228 231 235 244 244 244 246 241 244 243 247 251 252 259 262 268
294 291 290 290 292 302 301 293 281 270 260 261 263 252 241 235 228 220 209 205 203 206 216 226 231 227 227 232 238 245 248 249 248 244 243 243 248 246 254 260 261 257 260
283 275 279 281 280 287 296 297 295 293 284 274 265 263 257 234 219 215 215 218 222 220 218 225 231 238 240 244 248 249 250 249 247 243 244 244 246 251 256 261 262 262 264
317 315 315 312 310 308 305 302 297 299 300 294 287 281 271 246 230 224 221 222 226 230 232 232 238 244 249 249 251 252 255 256 251 244 242 245 248 249 255 258 264 263 269
324 321 320 318 317 315 314 315 309 302 298 297 299 298 280 253 243 239 237 234 231 238 241 240 241 249 256 256 253 252 253 251 244 238 238 240 244 249 254 256 260 263 264
323 319 316 314 315 315 315 314 316 318 309 302 299 296 290 274 250 243 242 242 236 232 233 237 241 241 245 242 241 244 242 240 240 236 234 238 237 241 248 251 253 260 262
317 315 311 313 315 316 318 315 314 307 314 312 325 323 295 281 267 248 243 237 230 218 211 216 222 224 221 218 224 228 227 230 232 230 231 230 232 232 241 251 258 260 263
319 312 313 312 313 319 319 317 317 316 315 319 321 325 349 34 153 164 170 177 181 179 182 188 196 209 220 214 206 212 216 219 219 224 229 238 251 256 260 266 269 273 275
329 322 315 313 311 315 316 316 316 316 314 314 310 311 327 3 90 135 142 165 178 185 193 202 206 217 230 238 241 243 242 243 244 245 248 245 245 246 250 254 264 265 270